Temp
19 19 19 19 19 19 19 19 18 18 18 18 18 18 17 17 17 17 17 17 17 17 16 16 16 16 16 16 16 16 16 16 16 16 16 16 15 15 15 15 15 15
19 19 19 19 19 19 19 19 18 18 18 18 18 17 17 17 17 17 17 17 16 16 16 16 16 16 16 16 16 16 16 16 16 16 16 15 15 15 15 15 15 15
19 19 19 18 19 19 19 19 18 18 18 18 18 17 17 17 17 17 17 17 16 16 16 16 16 16 16 16 16 16 16 16 16 15 15 15 15 15 15 15 15 15
19 18 18 18 18 18 18 18 18 18 18 18 18 17 17 17 17 17 17 16 16 16 16 16 16 16 16 16 16 16 16 16 15 15 15 15 15 15 15 15 15 15
19 19 18 18 18 18 18 18 18 18 18 18 17 17 17 17 17 17 16 16 16 16 16 16 16 16 16 16 16 15 15 15 15 14 14 15 15 15 15 14 14 14
19 19 19 19 19 19 18 18 18 18 18 17 17 17 17 17 17 17 16 16 16 16 16 16 16 16 15 15 15 15 15 15 15 14 14 14 15 15 14 14 14 14
19 19 19 19 19 19 18 18 18 18 18 17 17 17 17 17 17 17 16 16 16 16 16 16 16 16 15 15 15 14 14 14 14 13 13 14 14 15 14 14 14 14
19 19 19 19 19 19 19 19 18 18 18 18 17 17 17 17 16 16 16 16 16 16 15 15 15 15 15 15 15 14 14 14 13 13 13 14 14 14 14 13 13 13
19 19 19 19 19 19 19 19 19 19 18 18 17 17 16 16 16 16 16 16 16 15 15 15 15 15 15 15 14 14 14 14 13 13 14 14 14 14 13 13 13 13
19 19 19 19 19 19 19 19 19 19 18 18 18 17 16 16 16 16 16 16 15 15 15 15 15 15 15 15 14 14 14 13 13 14 14 14 14 14 13 12 12 12
19 19 19 19 18 19 19 19 19 19 18 18 17 17 16 16 16 16 16 15 15 15 15 15 15 15 15 14 14 14 14 13 14 14 15 15 14 13 12 12 12 12
19 19 18 18 18 19 19 19 19 19 18 18 17 17 16 16 16 15 15 15 15 15 15 15 15 15 14 14 14 14 13 14 14 15 15 14 14 13 12 12 12 12
19 18 18 18 18 19 19 19 19 19 18 18 17 17 16 16 16 15 15 15 15 15 15 15 15 14 14 14 13 13 14 14 14 14 13 13 13 12 12 12 12 12
18 18 18 18 18 18 19 18 18 18 18 18 17 17 16 16 16 15 15 15 15 15 15 14 14 14 14 14 14 14 14 14 13 13 13 12 12 12 12 12 12 12
18 18 18 18 18 18 19 19 19 19 18 18 17 17 16 16 15 15 15 15 15 15 14 14 14 14 14 14 14 14 14 13 13 13 13 12 12 12 12 12 12 12
18 18 18 18 18 19 19 19 19 19 18 18 17 17 16 16 15 15 15 15 15 14 14 14 14 14 14 14 14 13 13 13 13 13 13 13 13 12 12 12 11 11
18 18 18 18 18 19 19 19 19 19 19 18 17 17 16 16 15 15 15 15 14 14 14 14 14 14 14 13 13 13 13 13 12 12 13 13 13 13 13 12 12 11
18 18 18 18 18 18 19 18 18 19 18 18 17 17 16 16 15 15 15 14 14 14 14 14 14 14 13 13 13 12 12 12 12 12 13 13 13 13 13 12 12 11
18 18 18 18 18 18 18 18 18 18 18 18 17 16 16 16 15 15 15 14 14 14 14 14 14 13 13 12 12 12 12 12 12 12 12 12 12 12 12 12 11 11
18 18 18 18 18 18 18 18 18 18 18 17 17 16 16 16 15 15 14 14 14 14 14 14 14 13 12 12 12 12 12 12 12 12 12 12 11 11 11 11 10 10
17 17 17 18 18 17 17 18 18 18 18 17 16 16 16 15 15 15 14 14 14 14 14 14 13 12 12 12 12 12 12 12 12 12 11 11 10 10 10 10 10 9
17 17 18 18 18 18 18 18 18 17 17 17 16 16 15 15 15 15 14 14 14 14 14 13 12 12 12 12 11 11 11 12 12 11 10 10 10 9 9 9 9 9
18 18 18 18 18 17 17 18 18 17 17 16 16 16 15 15 15 14 14 14 14 14 13 13 12 12 12 11 11 11 12 12 11 11 10 10 9 10 10 9 9 9
17 17 17 17 17 17 17 17 17 17 16 16 16 15 15 15 14 14 14 14 14 14 13 13 12 12 11 11 11 11 12 11 11 10 10 10 10 10 9 9 9 9
17 17 17 17 17 17 17 17 17 16 16 16 16 15 15 14 14 14 14 14 14 14 13 12 12 11 11 11 11 11 11 11 10 9 9 10 10 10 9 9 9 9
18 17 17 17 17 17 17 17 17 16 16 16 16 15 14 14 14 14 15 14 14 13 12 12 12 11 11 11 11 11 11 10 10 9 9 10 10 10 9 9 9 9
Height
1533 1534 1534 1535 1535 1535 1536 1536 1536 1536 1536 1536 1536 1536 1535 1535 1534 1534 1534 1533 1533 1533 1532 1532 1531 1530 1530 1529 1528 1527 1525 1524 1523 1522 1521 1520 1519 1518 1517 1517 1516 1515
1535 1535 1536 1536 1536 1537 1537 1537 1537 1536 1536 1536 1536 1536 1535 1535 1535 1534 1534 1534 1533 1533 1533 1532 1531 1531 1530 1529 1528 1527 1525 1524 1523 1521 1520 1519 1519 1518 1517 1516 1515 1515
1536 1537 1537 1538 1538 1538 1538 1538 1538 1537 1537 1537 1537 1536 1536 1535 1535 1534 1534 1534 1534 1533 1533 1532 1532 1531 1530 1528 1527 1526 1525 1524 1523 1521 1520 1519 1518 1517 1516 1516 1515 1514
1537 1538 1538 1539 1539 1539 1539 1539 1539 1538 1538 1538 1537 1536 1536 1535 1535 1534 1534 1534 1534 1534 1533 1532 1532 1531 1530 1529 1527 1526 1525 1524 1523 1522 1521 1519 1518 1517 1516 1515 1515 1514
1538 1538 1539 1539 1539 1540 1540 1539 1539 1539 1538 1538 1537 1536 1536 1535 1535 1534 1534 1534 1533 1533 1533 1532 1532 1531 1530 1529 1528 1527 1526 1525 1524 1522 1521 1520 1519 1518 1516 1516 1515 1514
1538 1538 1539 1539 1539 1540 1540 1539 1539 1539 1538 1538 1537 1536 1536 1535 1534 1534 1533 1533 1533 1533 1533 1532 1532 1531 1530 1529 1528 1527 1526 1525 1524 1523 1522 1520 1519 1518 1516 1516 1515 1514
1538 1538 1538 1539 1539 1539 1539 1539 1538 1538 1537 1537 1537 1536 1535 1534 1534 1533 1533 1533 1533 1533 1532 1532 1531 1531 1530 1529 1528 1527 1526 1525 1524 1523 1522 1520 1519 1518 1516 1516 1515 1514
1537 1538 1538 1538 1538 1538 1538 1538 1537 1537 1537 1536 1536 1535 1535 1534 1534 1533 1533 1533 1532 1532 1532 1532 1531 1531 1530 1529 1528 1527 1526 1525 1524 1522 1521 1520 1519 1517 1516 1515 1515 1514
1537 1537 1537 1538 1538 1538 1537 1537 1537 1536 1536 1536 1535 1535 1535 1534 1534 1533 1533 1532 1532 1532 1532 1532 1531 1531 1530 1529 1528 1527 1526 1524 1523 1522 1521 1519 1518 1517 1516 1515 1514 1514
1536 1537 1537 1537 1538 1538 1538 1537 1537 1536 1536 1535 1535 1535 1535 1534 1534 1533 1533 1532 1532 1532 1532 1532 1531 1530 1529 1528 1527 1526 1525 1524 1523 1521 1519 1518 1517 1516 1516 1515 1514 1514
1536 1536 1537 1537 1538 1538 1538 1538 1537 1536 1535 1535 1534 1534 1534 1534 1534 1534 1533 1533 1533 1532 1532 1532 1531 1530 1529 1528 1527 1526 1525 1523 1522 1520 1518 1517 1516 1516 1515 1515 1514 1513
1536 1536 1537 1537 1538 1538 1538 1538 1537 1536 1535 1534 1534 1534 1534 1534 1534 1534 1534 1534 1533 1533 1532 1532 1531 1530 1529 1528 1527 1525 1524 1522 1521 1519 1518 1517 1516 1516 1515 1515 1514 1513
1537 1537 1537 1537 1537 1537 1537 1537 1536 1536 1535 1534 1533 1534 1534 1534 1534 1534 1534 1534 1534 1533 1532 1531 1530 1530 1529 1527 1526 1524 1523 1522 1520 1519 1518 1517 1516 1516 1515 1514 1513 1512
1537 1538 1538 1538 1537 1536 1536 1536 1536 1535 1534 1534 1534 1533 1534 1534 1534 1534 1534 1534 1534 1533 1532 1531 1530 1529 1528 1526 1525 1523 1522 1521 1520 1519 1518 1517 1516 1516 1515 1514 1513 1512
1538 1537 1537 1537 1536 1535 1535 1535 1535 1534 1534 1533 1533 1534 1534 1534 1534 1534 1534 1534 1533 1533 1532 1531 1530 1528 1527 1525 1524 1523 1522 1521 1520 1519 1518 1517 1516 1515 1514 1513 1512 1511
1537 1537 1537 1537 1536 1535 1535 1535 1534 1534 1533 1533 1533 1533 1533 1533 1534 1533 1533 1533 1533 1532 1532 1530 1529 1528 1526 1525 1523 1523 1522 1521 1520 1519 1518 1516 1515 1514 1513 1512 1511 1510
1536 1536 1536 1536 1535 1535 1534 1533 1533 1533 1533 1532 1532 1533 1533 1533 1533 1533 1533 1533 1532 1532 1531 1530 1528 1527 1525 1524 1524 1523 1522 1521 1520 1518 1517 1516 1514 1513 1511 1510 1509 1507
1535 1535 1535 1535 1535 1534 1533 1533 1532 1532 1532 1532 1532 1532 1532 1533 1533 1533 1532 1532 1532 1531 1531 1529 1528 1526 1525 1525 1524 1523 1522 1521 1519 1518 1516 1514 1513 1511 1509 1508 1506 1505
1534 1534 1534 1534 1534 1534 1533 1532 1532 1532 1532 1532 1532 1532 1532 1532 1533 1532 1532 1532 1532 1531 1530 1528 1527 1526 1525 1525 1524 1523 1522 1520 1519 1517 1515 1513 1511 1509 1508 1506 1505 1504
1532 1532 1533 1533 1533 1533 1533 1532 1532 1532 1532 1532 1532 1532 1532 1532 1532 1532 1532 1532 1531 1531 1529 1528 1527 1526 1526 1525 1524 1523 1522 1520 1518 1516 1514 1512 1510 1508 1507 1506 1504 1503
1532 1532 1532 1531 1531 1532 1532 1532 1532 1532 1532 1532 1532 1533 1533 1532 1532 1532 1532 1532 1531 1530 1529 1528 1527 1527 1526 1525 1524 1523 1521 1519 1517 1515 1513 1511 1509 1508 1507 1505 1504 1503
1530 1530 1530 1530 1530 1531 1531 1532 1532 1532 1532 1532 1532 1533 1533 1532 1532 1532 1532 1532 1531 1530 1529 1528 1527 1527 1526 1525 1524 1522 1521 1519 1517 1515 1513 1511 1509 1508 1507 1505 1504 1503
1528 1528 1529 1529 1530 1530 1531 1531 1532 1532 1532 1533 1533 1532 1533 1532 1532 1532 1532 1531 1531 1530 1529 1528 1527 1527 1526 1524 1523 1522 1520 1518 1517 1514 1512 1511 1509 1508 1507 1506 1504 1503
1528 1528 1529 1529 1530 1530 1530 1531 1532 1532 1533 1533 1533 1532 1532 1532 1532 1532 1532 1531 1530 1530 1529 1528 1527 1526 1525 1524 1523 1522 1520 1518 1517 1514 1512 1511 1510 1508 1507 1506 1505 1503
1527 1528 1528 1529 1529 1529 1530 1530 1531 1532 1532 1533 1532 1532 1532 1532 1532 1531 1531 1531 1530 1530 1529 1528 1527 1526 1525 1524 1523 1522 1520 1519 1517 1515 1513 1511 1510 1509 1507 1506 1505 1504
1527 1527 1527 1528 1528 1529 1529 1531 1531 1531 1532 1532 1532 1532 1532 1532 1531 1531 1531 1530 1530 1530 1529 1528 1527 1526 1525 1524 1523 1522 1520 1519 1517 1515 1513 1512 1510 1509 1508 1506 1505 1503
Wind_Speed
8 8 7 6 6 6 6 6 6 6 5 5 5 6 6 6 7 7 7 7 7 8 8 10 11 11 12 12 13 14 15 15 14 14 13 12 11 10 10 9 9 8
9 8 7 7 6 6 7 6 6 6 5 5 5 5 5 6 6 7 7 7 8 9 9 9 11 12 13 14 15 15 14 13 12 12 12 11 11 10 10 10 9 8
8 7 6 6 6 7 7 7 7 7 6 5 5 5 5 6 7 7 7 8 8 9 9 9 10 12 14 16 15 15 14 13 13 13 14 14 13 12 12 11 10 9
7 6 4 4 5 6 7 7 7 7 7 6 5 5 5 7 8 7 7 7 8 8 9 9 10 12 14 14 13 14 16 14 14 16 16 16 15 14 12 11 10 9
5 3 2 2 4 6 7 7 8 8 7 7 6 6 7 7 8 8 7 7 7 8 9 10 11 12 13 13 12 15 17 15 14 16 18 18 16 14 12 10 8 7
2 2 2 2 4 6 8 8 9 9 8 8 7 7 7 8 8 8 8 7 7 7 7 9 10 11 13 13 13 16 18 18 17 18 19 20 18 16 12 9 7 6
2 3 4 4 4 5 8 9 9 10 9 9 8 7 7 8 8 8 9 8 8 7 6 8 10 11 13 14 16 17 19 20 20 20 21 21 20 16 11 8 7 5
2 3 3 4 4 6 9 10 9 10 11 10 9 7 8 8 7 8 9 9 8 7 6 8 10 11 13 15 17 18 20 21 21 21 22 22 20 16 10 7 6 6
1 2 3 4 5 8 10 10 9 10 11 11 10 8 8 8 7 7 8 8 7 7 8 10 11 12 14 16 17 19 20 21 22 23 24 22 18 13 9 6 6 6
1 1 2 4 6 8 9 9 9 10 11 11 10 8 7 7 8 8 7 7 7 8 9 11 13 14 15 17 18 20 21 21 24 25 24 20 15 10 8 6 7 8
0 1 2 5 6 8 8 9 9 10 11 11 10 7 6 7 8 8 7 7 7 9 10 12 13 15 16 18 20 21 22 24 26 23 19 15 11 9 7 7 8 9
3 3 4 5 5 6 7 8 9 11 11 11 9 7 6 7 8 8 8 8 9 10 11 13 14 15 18 19 21 22 24 25 22 17 13 11 9 8 8 8 9 9
5 4 4 4 4 5 7 8 9 11 11 10 9 7 6 7 7 8 8 9 10 11 11 13 14 16 19 20 22 24 24 20 16 13 12 10 9 9 10 10 11 11
5 4 3 2 3 4 5 6 8 10 11 10 8 7 6 7 7 8 9 10 10 11 11 13 15 17 19 21 23 22 18 14 13 13 12 11 11 12 12 12 13 13
5 4 3 1 1 2 4 6 7 9 10 9 8 7 7 7 7 8 9 10 10 11 13 14 16 19 21 21 19 16 14 13 13 13 13 13 13 13 14 14 14 14
6 6 5 4 4 3 5 6 7 9 9 8 8 8 7 7 7 8 9 10 11 12 14 15 18 20 20 16 13 12 13 13 14 14 14 14 14 14 14 15 15 16
7 7 6 7 6 5 5 6 6 8 9 8 7 7 7 7 7 8 9 10 11 13 14 17 19 19 14 11 11 12 12 13 14 15 16 15 15 15 15 15 16 17
9 9 10 10 9 6 5 5 6 7 7 7 6 6 6 7 9 10 10 10 11 13 16 19 18 14 10 9 11 12 13 14 16 17 17 17 16 15 15 15 15 15
12 12 13 13 11 8 6 5 6 6 6 6 5 5 6 7 9 10 10 11 12 14 17 18 14 9 7 9 11 12 13 16 18 19 19 18 17 16 15 14 14 13
14 14 14 13 11 8 7 6 6 7 6 5 5 5 6 7 8 9 10 11 13 16 18 15 9 5 7 10 12 13 16 19 21 21 20 18 16 15 13 12 12 12
14 13 12 12 10 8 7 7 7 8 7 6 5 5 6 6 7 9 10 11 14 16 14 9 5 5 8 11 13 16 19 21 22 20 17 15 13 12 10 10 11 11
13 12 11 11 10 8 7 7 8 8 7 6 5 4 5 6 7 9 10 12 15 14 8 5 4 6 9 12 15 18 21 22 21 18 15 13 13 12 11 11 12 13
11 11 10 10 10 8 7 6 7 7 6 6 5 3 4 7 8 8 10 13 12 8 4 4 5 8 11 15 17 19 21 22 19 15 14 15 14 13 12 11 12 14
9 9 9 9 8 7 7 5 5 5 5 5 4 3 4 6 8 9 10 10 6 3 4 6 8 10 13 15 17 19 21 20 17 14 15 15 13 12 11 10 10 11
8 8 7 7 7 7 6 4 3 3 3 4 4 4 4 6 8 9 8 4 3 4 6 8 10 12 14 15 17 18 19 17 14 13 15 15 12 11 11 10 9 10
6 4 3 4 5 5 5 3 2 1 2 4 5 5 5 7 8 7 4 2 4 6 8 9 11 13 14 15 16 17 17 15 13 13 14 15 14 12 11 10 10 11
Wind_Direction
114 105 97 87 84 81 74 65 58 58 56 46 34 30 28 17 14 16 11 8 10 6 5 9 10 7 2 358 353 347 344 341 340 343 345 342 337 332 326 322 318 307
117 106 93 81 77 73 67 60 54 52 53 46 34 23 12 1 3 9 2 360 0 357 359 5 4 0 357 354 353 353 353 355 356 357 358 355 350 346 340 335 331 320
119 107 91 74 64 58 52 47 41 39 40 39 30 17 1 350 354 357 354 351 349 349 352 358 357 356 354 351 354 1 3 6 12 13 10 5 359 354 349 344 341 333
123 113 96 60 36 30 28 26 24 21 21 18 15 7 352 344 346 345 338 335 337 339 343 350 352 352 354 354 355 359 -0 3 12 16 10 2 357 354 351 349 349 343
135 115 81 9 357 359 2 4 5 5 5 3 357 350 341 336 336 329 320 317 319 327 339 344 346 351 360 4 359 354 355 360 7 10 5 358 354 351 349 353 357 354
135 67 51 13 350 354 354 351 352 353 355 352 345 337 331 331 329 319 310 304 303 317 337 342 344 353 1 5 1 354 354 357 0 3 358 352 349 347 349 355 0 359
90 57 54 38 20 3 355 351 349 347 345 342 339 332 327 327 323 313 305 301 305 323 343 343 344 350 353 356 355 352 351 352 353 353 349 344 341 341 344 350 356 355
73 56 39 28 17 358 352 350 348 345 340 335 332 326 323 323 316 308 304 304 314 333 344 341 341 344 345 347 348 347 346 346 345 344 340 335 332 333 337 344 347 344
94 55 24 5 354 347 346 347 347 345 338 333 329 321 318 319 315 308 306 311 323 337 337 337 339 339 339 340 341 339 338 338 338 335 332 327 323 324 331 334 332 334
114 47 358 340 341 343 344 347 349 346 339 334 330 323 318 320 319 315 317 324 332 332 329 333 335 334 334 334 333 333 332 332 330 328 326 321 316 318 326 325 324 326
213 306 315 322 333 343 348 350 351 346 342 339 335 329 324 325 323 321 324 329 327 324 325 328 330 329 329 329 328 328 328 326 327 329 328 321 316 321 323 319 321 320
262 282 297 310 326 347 353 354 352 346 344 345 344 341 333 328 327 323 321 321 319 320 322 324 325 326 326 326 325 324 324 325 328 335 337 328 325 328 323 318 319 316
259 276 290 309 338 359 1 356 350 344 346 351 350 347 339 332 327 324 324 325 321 319 319 320 324 326 325 324 323 322 324 329 338 346 346 341 337 331 323 320 319 315
263 274 289 343 5 5 2 357 347 341 346 355 353 346 339 329 324 324 328 330 327 322 321 324 327 327 325 322 321 324 330 339 346 347 345 341 334 329 325 321 318 313
264 258 254 277 302 321 346 350 343 338 345 356 356 348 339 330 324 323 328 332 331 327 326 327 327 325 323 324 328 336 342 345 344 342 339 335 330 326 323 318 314 309
252 252 260 266 264 292 330 337 333 333 342 355 358 350 344 338 329 327 332 333 329 325 325 325 325 325 328 335 344 349 347 346 345 343 340 336 330 325 317 309 303 299
254 261 271 271 276 302 324 325 328 334 342 352 357 349 341 337 334 333 333 327 322 322 323 324 327 330 338 348 351 349 348 348 347 342 338 333 327 321 313 304 299 296
257 262 268 274 288 311 316 315 326 333 338 346 352 348 337 329 330 331 328 323 322 323 324 326 330 336 347 354 352 350 349 348 346 341 336 331 326 322 316 311 308 306
254 261 272 278 289 304 304 305 317 323 332 339 340 341 338 329 327 328 326 322 320 322 325 328 334 344 356 355 352 351 350 349 346 342 338 335 334 331 327 323 322 319
260 267 276 277 278 288 293 295 304 314 321 319 317 329 336 335 331 325 322 319 318 323 327 330 340 357 352 346 349 354 354 351 347 343 340 339 339 338 336 333 330 328
273 274 272 267 267 275 278 279 292 307 312 305 305 322 331 336 334 322 316 315 319 325 330 338 2 359 340 345 356 359 355 350 346 344 345 349 353 354 353 349 345 344
287 280 267 253 251 259 263 272 289 301 311 315 316 325 331 335 333 321 313 316 322 329 340 4 17 357 349 357 2 358 353 348 346 349 359 6 7 8 11 8 0 357
302 295 280 258 247 249 253 265 286 297 313 326 330 339 339 333 328 319 314 318 325 337 0 16 12 2 0 3 0 354 350 347 348 358 10 10 8 8 12 12 4 358
311 299 284 266 256 253 248 254 284 305 318 327 329 341 339 327 321 316 314 320 333 354 12 15 11 4 1 360 355 350 348 347 352 5 10 8 7 5 3 3 1 357
319 298 277 263 259 254 246 247 284 316 334 333 330 337 330 315 311 312 312 324 359 3 8 13 7 0 359 355 349 346 345 347 357 8 10 10 9 6 5 7 3 355
327 304 259 239 236 232 229 231 239 293 357 342 333 332 320 306 302 302 301 341 3 359 3 2 355 354 354 348 343 342 344 352 4 10 11 12 11 10 10 8 3 358